314P/Montani (2016)

Japanese version
Home page
Updated on February 27, 2017

---------------------------------------------------------------------

* Profile

Designation 314P/2014 U1
Recovery Date October 21, 2014
Magnitude 20.4 mag
Recoverer G. V. Williams, T. H. Bressi and A. F. Tubbiolo (Spacewatch, Kitt Peak)

* Pictures

* Orbital Elements

Epoch 2016 Oct. 19.0 TT = JDT 2457680.5
T 2016 Oct. 7.86441 TT                                  MPCW
q   4.2337659            (2000.0)            P               Q
n   0.05037361     Peri.  213.74159     -0.52035274     -0.85113258
a   7.2610706      Node   267.70411     +0.79801678     -0.45576493
e   0.4169226      Incl.    3.97859     +0.30397739     -0.26048352
P  19.57
From 217 observations 1997 Apr. 9-2016 Apr. 4, mean residual 0".6.

* Magnitudes Graph

        m1 = 9.0 + 5 log d + 10.0 log r

---------------------------------------------------------------------

The orbital elements are published on M.P.E.C. 2016-K18.
The magnitudes graphs are made with Comet for Windows.

---------------------------------------------------------------------

Copyright(C) Seiichi Yoshida (comet@aerith.net). All rights reserved.